DMSP 5D-2 F13 DEB, 42278

Orbit data source: Space-Track

DMSP 5D-2 F13 DEB, 42278 is space debris in SSO originally from a launch on Fri, 24 Mar 1995 UTC launched from the Air Force Western Test Range (AFWTR). Debris objects in space refer to the collection of defunct objects orbiting the Earth. Examples of debris include non-operational satellites, rocket bodies, and fragments generated from explosions, collisions, or faulty payload assembly.

Loading next visibility...
Identifier
42278, 1995-015GU
Orbit
SSO
Country
Flag of USUS
Related business
Manufacturer
Unknown
Mission
Spacecraft
Bus & Motor
Unknown
Mass
Unknown
Launch date (UTC)
1995-03-24 (31 years ago)
Launch vehicle
Unknown
Launch site
Air Force Western Test Range (AFWTR)
Object type
Payload
Rocket body
Debris
Shape & HBR
Unknown shape, 0.1 m
Radar Cross Section
Small (<0.1 m²)

Expand to show TLE details & history
Last TLE update: 6 days ago

TLE from 6 days ago
0 DMSP 5D-2 F13 DEB
1 42278U 95015GU  25344.32502969  .00022259  00000-0  56321-2 0  9996
2 42278  98.8816   1.4141 0025943 103.5711 256.8374 14.50712236540271
Epoch: 2025-12-10T07:48Z
TLE epoch observation values (Epoch: 2025-12-10T07:48:02.565Z)
Latitude
-0.00001°
Longitude
165.10643°
Altitude
730.515 km
Speed
7.488 km/s
True Right ascension
00h 05m 39s
True Declination
0° 00' 00"
Sunlit
Object was in daylight at epoch
Visualization orbit readout
Latitude
Unknown
Longitude
Unknown
Altitude
Unknown
Speed
Unknown
Apparent Right ascension
Unknown
Apparent Declination
Unknown
Sunlit
N/A
Visualization observer readout
Local Sidereal Time
05:06:03
Azimuth
Unknown
Elevation
Unknown
Doppler factor
Unknown
Orbital elements
Apogee altitude
738.865 km
Perigee altitude
702.033 km
Semi-major axis
7,098.586 km
Eccentricity
0.00259
Inclination
98.8816°
RAAN
1.4141°
Arg. of periapsis
103.5711°
True anomaly
256.54814°
Mean anomaly
256.8374°
Eccentric anomaly
256.69275°
Mean motion
3.62899 °/min
Orbital period
99.2 mins
BSTAR
0.0056321
Loading maneuver chart data...
Computing Atmospheric mass density...

Documentation

Showing up to 5 results
|